timestamp,wind_dir_avg,wind_spd_avg,wind_spd_max_dir,wind_spd_gust,battery_voltage,lat,long
2023-03-04 00:04:00+00:00,329.0,12.61,317.0,16.0,12.41,47.59359,-54.27349
2023-03-04 00:14:00+00:00,332.0,14.67,318.0,18.56,12.33,47.59359,-54.27349
2023-03-04 00:24:00+00:00,333.0,13.8,325.0,16.85,12.33,47.59359,-54.27349
2023-03-04 00:34:00+00:00,332.0,12.31,314.0,15.16,12.33,47.59359,-54.27349
2023-03-04 00:44:00+00:00,337.0,13.69,329.0,15.31,12.33,47.59359,-54.27349
2023-03-04 00:54:00+00:00,334.0,13.0,329.0,16.34,12.33,47.59359,-54.27349
2023-03-04 01:04:00+00:00,334.0,13.37,328.0,14.97,12.33,47.59359,-54.27349
2023-03-04 01:14:00+00:00,334.0,12.81,341.0,17.29,12.25,47.59359,-54.27349
2023-03-04 01:24:00+00:00,334.0,12.44,333.0,14.18,12.25,47.59359,-54.27349
2023-03-04 01:34:00+00:00,332.0,10.72,327.0,12.38,12.25,47.59359,-54.27349
2023-03-04 01:44:00+00:00,331.0,11.09,325.0,12.59,12.25,47.59359,-54.27349
2023-03-04 01:54:00+00:00,329.0,10.38,328.0,11.83,12.25,47.59359,-54.27349
2023-03-04 02:04:00+00:00,327.0,10.26,327.0,11.41,12.25,47.59359,-54.27349
2023-03-04 02:14:00+00:00,329.0,9.68,328.0,11.58,12.25,47.59359,-54.27349
2023-03-04 02:24:00+00:00,331.0,9.26,331.0,11.11,12.25,47.59359,-54.27349
2023-03-04 02:34:00+00:00,338.0,10.61,346.0,11.96,12.25,47.59359,-54.27349
2023-03-04 02:44:00+00:00,329.0,10.51,332.0,12.09,12.25,47.59359,-54.27349
2023-03-04 02:54:00+00:00,322.0,8.17,314.0,9.21,12.25,47.59359,-54.27349
2023-03-04 03:04:00+00:00,336.0,9.98,330.0,11.93,12.25,47.59359,-54.27349
2023-03-04 03:14:00+00:00,330.0,9.81,329.0,11.03,12.25,47.59359,-54.27349
2023-03-04 03:24:00+00:00,325.0,10.31,329.0,11.51,12.25,47.59359,-54.27349
2023-03-04 03:34:00+00:00,325.0,9.57,325.0,10.88,12.25,47.59359,-54.27349
2023-03-04 03:44:00+00:00,322.0,9.18,323.0,10.58,12.25,47.59359,-54.27349
2023-03-04 03:54:00+00:00,321.0,9.19,318.0,10.12,12.25,47.59359,-54.27349
2023-03-04 04:04:00+00:00,320.0,8.52,321.0,10.1,12.25,47.59359,-54.27349
2023-03-04 04:14:00+00:00,320.0,9.82,321.0,11.39,12.17,47.59359,-54.27349
2023-03-04 04:24:00+00:00,315.0,8.87,318.0,10.26,12.17,47.59359,-54.27349
2023-03-04 04:34:00+00:00,318.0,9.86,321.0,11.11,12.17,47.59359,-54.27349
2023-03-04 04:44:00+00:00,321.0,9.01,321.0,10.21,12.17,47.59359,-54.27349
2023-03-04 04:54:00+00:00,318.0,8.81,322.0,11.19,12.17,47.59359,-54.27349
2023-03-04 05:04:00+00:00,322.0,9.88,324.0,11.93,12.17,47.59359,-54.27349
2023-03-04 05:14:00+00:00,320.0,9.41,327.0,10.75,12.17,47.59359,-54.27349
2023-03-04 05:24:00+00:00,320.0,8.34,317.0,9.74,12.17,47.59359,-54.27349
2023-03-04 05:34:00+00:00,313.0,8.89,316.0,10.13,12.17,47.59359,-54.27349
2023-03-04 05:44:00+00:00,313.0,9.87,301.0,13.84,12.17,47.59359,-54.27349
2023-03-04 05:54:00+00:00,312.0,9.75,308.0,11.87,12.17,47.59359,-54.27349
2023-03-04 06:04:00+00:00,311.0,8.11,321.0,10.92,12.17,47.59359,-54.27349
2023-03-04 06:14:00+00:00,315.0,9.48,323.0,11.51,12.17,47.59359,-54.27349
2023-03-04 06:24:00+00:00,313.0,9.84,314.0,11.47,12.17,47.59359,-54.27349
2023-03-04 06:34:00+00:00,323.0,8.67,321.0,10.61,12.17,47.59359,-54.27349
2023-03-04 06:44:00+00:00,315.0,8.35,316.0,10.05,12.17,47.59359,-54.27349
2023-03-04 06:54:00+00:00,322.0,7.77,321.0,8.94,12.17,47.59359,-54.27349
2023-03-04 07:04:00+00:00,326.0,7.14,330.0,8.61,12.17,47.59359,-54.27349
2023-03-04 07:14:00+00:00,327.0,7.03,328.0,8.23,12.09,47.59359,-54.27349
2023-03-04 07:24:00+00:00,318.0,7.52,316.0,9.06,12.09,47.59359,-54.27349
2023-03-04 07:34:00+00:00,324.0,7.59,317.0,8.81,12.09,47.59359,-54.27349
2023-03-04 07:44:00+00:00,321.0,8.34,321.0,10.3,12.09,47.59359,-54.27349
2023-03-04 07:54:00+00:00,334.0,7.18,326.0,8.83,12.09,47.59359,-54.27349
2023-03-04 08:04:00+00:00,338.0,5.97,313.0,7.91,12.09,47.59359,-54.27349
2023-03-04 08:14:01+00:00,321.0,4.94,294.0,6.6,12.09,47.59359,-54.27349
2023-03-04 08:24:01+00:00,326.0,6.05,322.0,7.18,12.09,47.59359,-54.27349
2023-03-04 08:34:01+00:00,324.0,5.76,319.0,7.28,12.09,47.59359,-54.27349
2023-03-04 08:44:01+00:00,315.0,6.12,313.0,7.7,12.09,47.59359,-54.27349
2023-03-04 08:54:01+00:00,319.0,7.14,325.0,9.99,12.09,47.59359,-54.27349
2023-03-04 09:04:01+00:00,320.0,5.38,315.0,6.78,12.09,47.59359,-54.27349
2023-03-04 09:14:00+00:00,322.0,5.85,324.0,6.92,12.09,47.59359,-54.27349
2023-03-04 09:24:00+00:00,300.0,6.09,295.0,8.2,12.09,47.59359,-54.27349
2023-03-04 09:34:00+00:00,311.0,5.62,309.0,6.93,12.09,47.59359,-54.27349
2023-03-04 09:44:00+00:00,314.0,5.32,318.0,6.48,12.09,47.59359,-54.27349
2023-03-04 09:54:00+00:00,302.0,6.22,303.0,7.65,12.09,47.59359,-54.27349
2023-03-04 10:04:00+00:00,309.0,5.57,301.0,7.73,12.09,47.59359,-54.27349
2023-03-04 10:14:01+00:00,308.0,6.46,305.0,8.1,12.01,47.59359,-54.27349
2023-03-04 10:24:01+00:00,301.0,7.55,305.0,8.71,12.01,47.59359,-54.27349
2023-03-04 10:34:01+00:00,310.0,7.07,302.0,9.07,12.01,47.59359,-54.27349
2023-03-04 10:44:01+00:00,297.0,7.61,299.0,9.62,12.01,47.59359,-54.27349
2023-03-04 10:54:01+00:00,319.0,7.92,313.0,10.11,12.01,47.59359,-54.27349
2023-03-04 11:04:01+00:00,328.0,5.04,333.0,6.16,12.01,47.59359,-54.27349
2023-03-04 11:14:00+00:00,311.0,6.27,304.0,9.94,13.76,47.59359,-54.27349
2023-03-04 11:24:00+00:00,310.0,5.18,319.0,6.19,13.76,47.59359,-54.27349
2023-03-04 11:34:00+00:00,304.0,6.22,299.0,10.51,13.76,47.59359,-54.27349
2023-03-04 11:44:00+00:00,304.0,7.14,300.0,10.05,13.76,47.59359,-54.27349
2023-03-04 11:54:00+00:00,313.0,4.16,319.0,4.86,13.76,47.59359,-54.27349
2023-03-04 12:04:00+00:00,298.0,5.82,289.0,9.44,13.76,47.59359,-54.27349
2023-03-04 12:14:00+00:00,303.0,6.95,299.0,9.19,13.68,47.59359,-54.27349
2023-03-04 12:24:00+00:00,323.0,6.32,300.0,8.98,13.68,47.59359,-54.27349
2023-03-04 12:34:00+00:00,309.0,9.67,309.0,12.12,13.68,47.59359,-54.27349
2023-03-04 12:44:00+00:00,325.0,7.16,329.0,8.03,13.68,47.59359,-54.27349
2023-03-04 12:54:00+00:00,323.0,7.73,313.0,10.23,13.68,47.59359,-54.27349
2023-03-04 13:04:00+00:00,317.0,8.71,310.0,11.92,13.68,47.59359,-54.27349
2023-03-04 13:14:00+00:00,310.0,10.03,312.0,12.3,14.32,47.59359,-54.27349
2023-03-04 13:24:00+00:00,323.0,10.28,312.0,13.01,14.32,47.59359,-54.27349
2023-03-04 13:34:00+00:00,318.0,9.07,307.0,12.47,14.32,47.59359,-54.27349
2023-03-04 13:44:00+00:00,345.0,9.61,346.0,11.76,14.32,47.59359,-54.27349
2023-03-04 13:54:00+00:00,327.0,10.81,315.0,14.46,14.32,47.59359,-54.27349
2023-03-04 14:04:00+00:00,322.0,9.9,312.0,12.47,14.32,47.59359,-54.27349
2023-03-04 14:14:00+00:00,318.0,13.52,316.0,15.6,14.16,47.59359,-54.27349
2023-03-04 14:24:00+00:00,335.0,11.03,317.0,14.73,14.16,47.59359,-54.27349
2023-03-04 14:34:00+00:00,319.0,10.81,313.0,13.44,14.16,47.59359,-54.27349
2023-03-04 14:44:00+00:00,319.0,11.03,313.0,13.92,14.16,47.59359,-54.27349
2023-03-04 14:54:00+00:00,312.0,9.83,308.0,11.7,14.16,47.59359,-54.27349
2023-03-04 15:04:00+00:00,318.0,11.23,322.0,12.71,14.16,47.59359,-54.27349
2023-03-04 15:14:00+00:00,323.0,12.13,325.0,14.21,13.92,47.59359,-54.27349
2023-03-04 15:24:00+00:00,326.0,13.23,330.0,15.07,13.92,47.59359,-54.27349
2023-03-04 15:34:00+00:00,318.0,10.91,317.0,11.83,13.92,47.59359,-54.27349
2023-03-04 15:44:00+00:00,325.0,12.6,329.0,13.95,13.92,47.59359,-54.27349
2023-03-04 15:54:00+00:00,314.0,13.73,319.0,16.23,13.92,47.59359,-54.27349
2023-03-04 16:04:00+00:00,326.0,12.64,324.0,15.11,13.92,47.59359,-54.27349
2023-03-04 16:14:00+00:00,320.0,13.42,316.0,16.82,13.68,47.59359,-54.27349
2023-03-04 16:24:00+00:00,326.0,11.31,329.0,13.25,13.68,47.59359,-54.27349
2023-03-04 16:34:00+00:00,330.0,11.7,329.0,13.17,13.68,47.59359,-54.27349
2023-03-04 16:44:00+00:00,334.0,11.61,331.0,13.84,13.68,47.59359,-54.27349
2023-03-04 16:54:00+00:00,323.0,8.48,319.0,10.22,13.68,47.59359,-54.27349
2023-03-04 17:04:00+00:00,322.0,9.59,317.0,11.06,13.68,47.59359,-54.27349
2023-03-04 17:14:01+00:00,332.0,11.36,341.0,12.94,14.56,47.59359,-54.27349
2023-03-04 17:24:01+00:00,329.0,10.24,324.0,12.61,14.56,47.59359,-54.27349
2023-03-04 17:34:01+00:00,336.0,12.97,337.0,14.3,14.56,47.59359,-54.27349
2023-03-04 17:44:01+00:00,331.0,10.15,331.0,11.89,14.56,47.59359,-54.27349
2023-03-04 17:54:01+00:00,324.0,9.31,321.0,12.43,14.56,47.59359,-54.27349
2023-03-04 18:04:01+00:00,323.0,11.87,315.0,14.59,14.56,47.59359,-54.27349
2023-03-04 18:14:01+00:00,332.0,9.6,331.0,11.62,13.68,47.59359,-54.27349
2023-03-04 18:24:01+00:00,326.0,9.57,323.0,11.52,13.68,47.59359,-54.27349
2023-03-04 18:34:01+00:00,324.0,9.15,322.0,11.26,13.68,47.59359,-54.27349
2023-03-04 18:44:01+00:00,319.0,11.64,300.0,14.18,13.68,47.59359,-54.27349
2023-03-04 18:54:01+00:00,326.0,9.17,321.0,11.38,13.68,47.59359,-54.27349
2023-03-04 19:04:01+00:00,324.0,9.75,299.0,14.28,13.68,47.59359,-54.27349
2023-03-04 19:14:00+00:00,327.0,9.26,319.0,11.15,14.32,47.59359,-54.27349
2023-03-04 19:24:00+00:00,327.0,9.42,319.0,11.89,14.32,47.59359,-54.27349
2023-03-04 19:34:00+00:00,309.0,12.21,303.0,16.68,14.32,47.59359,-54.27349
2023-03-04 19:44:00+00:00,328.0,9.34,319.0,11.36,14.32,47.59359,-54.27349
2023-03-04 19:54:00+00:00,312.0,11.92,305.0,16.24,14.32,47.59359,-54.27349
2023-03-04 20:04:00+00:00,313.0,12.84,303.0,16.86,14.32,47.59359,-54.27349
2023-03-04 20:14:00+00:00,312.0,12.83,311.0,16.88,13.6,47.59359,-54.27349
2023-03-04 20:24:00+00:00,318.0,10.89,309.0,13.62,13.6,47.59359,-54.27349
2023-03-04 20:34:00+00:00,313.0,9.83,301.0,14.67,13.6,47.59359,-54.27349
2023-03-04 20:44:00+00:00,333.0,8.64,320.0,10.61,13.6,47.59359,-54.27349
2023-03-04 20:54:00+00:00,322.0,6.57,314.0,8.33,13.6,47.59359,-54.27349
2023-03-04 21:04:00+00:00,321.0,6.76,300.0,8.6,13.6,47.59359,-54.27349
2023-03-04 21:14:00+00:00,323.0,7.0,317.0,9.31,13.29,47.59359,-54.27349
2023-03-04 21:24:00+00:00,313.0,6.32,306.0,8.37,13.29,47.59359,-54.27349
2023-03-04 21:34:00+00:00,315.0,6.0,315.0,7.01,13.29,47.59359,-54.27349
2023-03-04 21:44:00+00:00,316.0,6.38,322.0,7.85,13.29,47.59359,-54.27349
2023-03-04 21:54:00+00:00,312.0,5.84,313.0,6.76,13.29,47.59359,-54.27349
2023-03-04 22:04:00+00:00,317.0,5.08,314.0,6.84,13.29,47.59359,-54.27349
2023-03-04 22:14:00+00:00,315.0,5.56,312.0,6.78,12.57,47.59359,-54.27349
2023-03-04 22:24:00+00:00,329.0,5.7,320.0,7.47,12.57,47.59359,-54.27349
2023-03-04 22:34:00+00:00,329.0,5.87,309.0,8.15,12.57,47.59359,-54.27349
2023-03-04 22:44:00+00:00,321.0,5.65,320.0,7.08,12.57,47.59359,-54.27349
2023-03-04 22:54:00+00:00,326.0,6.39,328.0,8.49,12.57,47.59359,-54.27349
2023-03-04 23:04:00+00:00,331.0,6.58,322.0,8.6,12.57,47.59359,-54.27349
2023-03-04 23:14:00+00:00,320.0,8.1,316.0,9.82,12.41,47.59359,-54.27349
2023-03-04 23:24:00+00:00,320.0,6.56,323.0,8.46,12.41,47.59359,-54.27349
2023-03-04 23:34:00+00:00,323.0,8.77,321.0,10.09,12.41,47.59359,-54.27349
2023-03-04 23:44:00+00:00,314.0,9.52,318.0,10.93,12.41,47.59359,-54.27349
2023-03-04 23:54:00+00:00,321.0,9.59,320.0,11.06,12.41,47.59359,-54.27349
